This demonstration page uses our WeatherBlox Daily Observations layout. Learn more.

Left ArrowRight Arrow

39.92423, -83.80882

Hourly Observations for May 10, 2018

Temp ( °F °C ) Dew Point ( °F °C ) Humidity (%) Winds ( mph kmh ) Pressure ( in mb ) Visibility ( mi km ) Precip ( " mm )
2:42 am 02:42 Cloudy with Nearby Thunderstorms 72 22 57 14 61 61 W 17 28 29.83 1010 10 16.0934 0 0
2:56 am 02:56 Cloudy with Light Thunderstorms 67 19.4 58 14.4 73 73 WSW 18 30 29.84 1011 10 16.0934 0 0.0254
3:36 am 03:36 Mostly Cloudy with Light Rain 63 17 57 14 83 83 WSW 9 15 29.8 1009 10 16.0934 0 0.0254
3:56 am 03:56 Cloudy with Light Rain 64 17.8 58 14.4 81 81 WSW 17 28 29.81 1010 10 16.0934 0 0.0254
4:56 am 04:56 Mostly Cloudy 62 16.7 58 14.4 86 86 SW 9 15 29.81 1009 10 16.0934 0 0
5:56 am 05:56 Cloudy 62 16.7 59 15 90 90 SW 8 13 29.83 1010 10 16.0934 0 0
6:56 am 06:56 Mostly Cloudy 62 16.7 60 15.6 93 93 SSW 8 13 29.83 1010 10 16.0934 0 0
7:56 am 07:56 Partly Cloudy with Mist and Fog 64 17.8 61 16.1 90 90 SW 7 11 29.86 1011 4 6.43736 0 0
8:56 am 08:56 Sunny 67 19.4 61 16.1 81 81 WSW 10 17 29.88 1012 10 16.0934 0 0
9:56 am 09:56 Mostly Sunny 69 20.6 59 15 70 70 WNW 16 26 29.89 1012 10 16.0934 0 0
10:56 am 10:56 Sunny 72 22.2 58 14.4 61 61 W 20 31 29.9 1012 10 16.0934 0.04 1.016
11:56 am 11:56 Sunny 74 23.3 57 13.9 56 56 W 18 30 29.92 1013 10 16.0934 0.1 2.54
12:56 pm 12:56 Sunny 75 23.9 55 12.8 50 50 WNW 20 31 29.91 1013 10 16.0934 0 0
1:56 pm 13:56 Mostly Cloudy 78 25.6 56 13.3 47 47 W 23 37 29.91 1013 10 16.0934 0 0
2:56 pm 14:56 Partly Cloudy 78 25.6 55 12.8 45 45 W 15 24 29.91 1013 10 16.0934 0 0
3:56 pm 15:56 Sunny 79 26.1 50 10 36 36 W 20 31 29.91 1013 10 16.0934 0 0
4:56 pm 16:56 Sunny 80 26.7 45 7.2 29 29 W 20 31 29.91 1013 10 16.0934 0 0
5:56 pm 17:56 Sunny 78 25.6 47 8.3 33 33 WNW 15 24 29.91 1013 10 16.0934 0 0
6:56 pm 18:56 Sunny 77 25 46 7.8 33 33 WNW 14 22 29.92 1013 10 16.0934 0 0
7:56 pm 19:56 Sunny 74 23.3 47 8.3 38 38 WNW 12 19 29.93 1013 10 16.0934 0 0
8:56 pm 20:56 Clear 69 20.6 48 8.9 47 47 NW 7 11 29.94 1014 10 16.0934 0 0
9:56 pm 21:56 Clear 67 19.4 48 8.9 51 51 N 6 9 29.96 1015 10 16.0934 0 0
10:56 pm 22:56 Clear 65 18.3 50 10 59 59 NNE 3 6 29.98 1015 10 16.0934 0 0
11:56 pm 23:56 Clear 62 16.7 52 11.1 70 70 NE 6 9 29.99 1016 10 16.0934 0 0

Powered by AerisWeather